This is the latest recevied weather packets stored in our database for station/object EA3ANS-1. If no packets are shown the sender has not sent any weather packets the latest 10 day(s).
| Time | Temp. | Humidity | Pressure | Rain* | Wind** | Luminosity | Snow |
|---|---|---|---|---|---|---|---|
| 1777800163 | 18.89° C | - | 1015.8 hPa | 0 mm | 2.68 m/s, 111° | - | - |
| 1777799563 | 18.33° C | - | 1015.7 hPa | 0 mm | 2.68 m/s, 181° | - | - |
| 1777798966 | 18.33° C | - | 1016 hPa | 0 mm | 1.34 m/s, 132° | - | - |
| 1777798366 | 18.89° C | - | 1016 hPa | 0 mm | 0.89 m/s, 59° | - | - |
| 1777797164 | 18.89° C | - | 1016.2 hPa | 0 mm | 2.24 m/s, 155° | - | - |
| 1777796567 | 18.89° C | - | 1016.2 hPa | 0 mm | 1.34 m/s, 86° | - | - |
| 1777795969 | 18.33° C | - | 1016.2 hPa | 0 mm | 2.24 m/s, 82° | - | - |
| 1777795372 | 18.33° C | - | 1016.2 hPa | 0 mm | 2.24 m/s, 90° | - | - |
| 1777794767 | 18.33° C | - | 1016.3 hPa | 0 mm | 1.34 m/s, 150° | - | - |
| 1777794169 | 18.33° C | - | 1016.2 hPa | 0 mm | 1.34 m/s, 105° | - | - |
| 1777793566 | 17.78° C | - | 1016.1 hPa | 0 mm | 0.89 m/s, 66° | - | - |
| 1777792964 | 17.22° C | - | 1016.2 hPa | 0 mm | 2.24 m/s, 79° | - | - |
| 1777792364 | 17.22° C | - | 1016.4 hPa | 0 mm | 2.24 m/s, 97° | - | - |
| 1777791763 | 17.22° C | - | 1016.2 hPa | 0 mm | 0.45 m/s, 70° | - | - |
| 1777791165 | 17.22° C | - | 1016.2 hPa | 0 mm | 1.34 m/s, 79° | - | - |
| 1777790565 | 16.67° C | - | 1016.4 hPa | 0 mm | 0 m/s | - | - |
| 1777789967 | 17.22° C | - | 1016.4 hPa | 0 mm | 0.89 m/s, 82° | - | - |
| 1777789361 | 16.67° C | - | 1016.3 hPa | 0 mm | 0 m/s | - | - |
| 1777788761 | 16.67° C | - | 1016 hPa | 0 mm | 0.89 m/s, 111° | - | - |
| 1777788161 | 16.67° C | - | 1016 hPa | 0 mm | 0 m/s | - | - |
| 1777787561 | 16.67° C | - | 1016 hPa | 0 mm | 0 m/s | - | - |
| 1777786964 | 16.11° C | - | 1016 hPa | 0 mm | 0 m/s | - | - |
| 1777786367 | 16.11° C | - | 1015.8 hPa | 0 mm | 0 m/s | - | - |
| 1777785768 | 16.67° C | - | 1015.8 hPa | 0 mm | 0.45 m/s, 80° | - | - |
| 1777785165 | 16.67° C | - | 1016.1 hPa | 0 mm | 0.89 m/s, 63° | - | - |
* Rain latest hour (hover to see other rain measurements)
** Current wind speed in m/s (hover to see current wind gust speed)